Location: An Tulaigh
(53.1928°N, 8.1647°W)
Time: 01:03:17
(UTC+00:00)

Cosmos 2322 - Pass Details

Date: 15 May 2026
Orbit: 840 x 853 km, 71.0° (Epoch: 9 June)

Event Time Altitude Azimuth Distance (km) Brightness Sun altitude
Rises 23:31:15 0° 326° (NNW) 3,428 8.2 -16.7°
Reaches altitude 10° 23:33:44 10° 323° (NW) 2,487 7.2 -16.8°
Maximum altitude 23:39:21 60° 245° (WSW) 966 3.9 -17.0°
Enters shadow 23:42:17 28° 176° (S) 1,538 4.5 -17.0°
